Find Kosmos-797

NORAD ID: 8613 Int'l Des: 1976-008 Owner: GUKOSR Country: SU operational
LEOCIRCULAR

現在のビュー

3D地球を読み込み中...

Kosmos-797について

説明を読み込み中...

次回通過

Passes for default location (London). Set your location on the main map for personalized predictions.

高度履歴

Loading altitude history...

軌道要素

1 8613U 76008G 26150.56008199 -.00000026 00000-0 -79775-4 0 9990
2 8613 74.0549 87.7886 0031551 31.9129 79.9220 12.40688575279826
Epoch: May 30, 2026 • Age: 7 hours

現在のステータス

高度 1535.6 km
速度 7.10 km/s
衛星直下点 -67.91°S, 148.15°W
タイプ other

Most Searched